Theta_e
341 341 340 339 339 339 339 339 338 337 336 336 335 335 335 334 335 335 335 335 337 337 338 338 337 336 336 337 337 337 338 338 338 338 338 338 339 339 339 338 338 337 337 336 336 335 334 333 331 330 329 329 328 328 327 327 328 329 329 328 327 328 328 325 323 325 327 330 331 330 329 326 324 324 323 323 323 323 323 322 319 318 317 315 313
341 340 338 338 339 339 339 339 339 338 337 337 336 336 335 335 335 335 335 336 337 336 336 336 335 335 335 336 337 337 337 338 338 338 339 339 339 338 338 337 337 336 336 335 334 333 332 331 330 329 329 328 328 327 327 328 328 328 328 328 327 326 326 323 322 325 328 329 330 330 329 327 325 324 323 322 322 322 323 322 320 318 317 316 314
340 339 338 338 338 339 339 339 339 339 338 337 337 337 336 336 336 335 335 336 335 335 334 334 334 334 334 336 336 337 337 338 338 338 338 338 338 338 337 336 335 335 334 333 332 331 330 329 329 328 328 328 328 328 327 327 327 326 326 327 327 326 325 323 322 323 326 327 329 328 327 328 327 326 324 322 321 321 322 322 320 318 316 315 312
340 339 339 338 337 338 339 339 339 339 338 338 338 338 337 337 337 335 335 335 336 335 329 326 332 334 334 336 336 337 337 337 337 337 337 337 336 336 335 334 334 334 333 331 331 330 329 328 328 328 328 327 327 328 327 326 326 325 325 325 326 327 326 324 323 323 324 325 326 326 326 326 324 325 324 323 321 320 320 321 320 319 316 313 310
339 339 338 337 337 338 338 339 339 338 338 338 338 338 337 337 337 336 336 336 337 335 326 325 333 335 335 336 336 336 336 336 336 335 335 335 334 333 333 333 332 332 331 330 329 329 328 328 328 328 327 327 327 327 326 325 325 324 324 323 323 325 325 324 323 322 322 322 324 324 325 324 322 322 323 323 322 320 320 320 320 319 317 314 310
338 338 338 337 337 338 338 339 339 338 338 338 338 338 336 336 336 336 337 337 337 336 332 332 335 335 336 336 336 336 336 335 335 334 333 332 332 331 331 331 331 331 330 329 329 328 328 328 327 327 327 326 326 325 324 324 323 322 322 322 321 321 323 324 323 322 321 321 322 322 322 322 321 321 321 322 322 321 320 319 319 318 316 313 309
337 338 338 337 337 337 338 338 339 339 338 338 338 338 336 335 336 335 336 338 337 336 335 335 335 335 337 337 336 337 336 335 335 334 332 332 331 331 330 330 330 330 329 329 328 328 328 327 327 326 326 326 325 324 323 322 322 321 320 321 320 319 320 323 322 321 321 320 320 320 320 320 320 320 319 319 320 320 320 319 318 318 317 314 309
337 338 338 337 337 337 338 338 338 338 338 338 338 337 336 336 335 335 336 337 337 336 336 335 335 335 336 337 337 337 336 335 334 332 332 331 330 330 329 330 329 329 329 328 328 328 327 326 326 326 325 325 324 323 322 321 320 320 320 319 319 318 318 320 319 319 320 320 319 319 319 319 318 318 318 318 318 318 318 318 317 317 317 314 310
336 337 338 337 337 337 337 338 338 338 338 338 338 338 337 336 335 335 336 337 337 336 336 335 335 335 336 337 336 336 335 334 332 331 331 330 330 329 329 329 329 328 328 328 327 327 326 326 326 325 325 324 323 322 321 320 319 319 319 318 318 317 317 317 317 317 317 317 318 319 319 318 318 317 316 317 317 317 316 316 316 316 316 314 309
336 336 337 337 337 337 337 337 338 338 338 338 338 337 338 337 335 334 335 337 336 336 335 335 335 335 336 336 336 335 334 333 331 330 330 330 330 329 329 329 328 328 327 327 326 325 325 325 325 324 324 322 321 320 320 319 318 318 317 317 317 317 316 316 315 315 315 315 316 317 318 318 318 316 316 316 316 316 315 315 315 314 315 313 307
337 336 337 338 337 337 338 337 338 338 338 338 338 337 338 338 335 334 334 335 336 335 335 334 335 335 335 336 336 335 334 333 331 330 330 329 330 329 329 328 328 327 326 326 325 325 325 325 324 324 322 321 320 319 319 317 317 317 316 316 316 316 315 315 314 314 314 314 314 314 315 315 315 315 314 314 314 315 314 313 313 312 313 311 305
337 337 337 337 337 337 337 337 337 338 338 337 338 338 337 336 334 332 332 335 336 335 334 335 335 335 336 336 336 336 335 334 332 330 330 329 330 329 328 328 327 326 326 325 325 325 325 324 323 322 321 320 319 318 317 316 316 315 315 315 315 314 314 313 313 312 313 313 312 312 312 312 312 312 313 312 313 313 312 310 309 310 311 307 304
337 337 337 337 337 337 337 337 338 337 338 337 338 338 336 334 333 332 333 335 335 334 334 335 335 336 336 336 336 336 335 334 332 331 330 330 330 329 328 327 326 326 326 325 325 324 324 323 322 321 320 319 318 316 315 315 314 314 314 313 313 311 311 310 310 311 311 311 310 310 310 310 310 310 311 311 311 310 309 308 307 308 308 305 304
337 337 337 337 337 338 337 337 337 337 338 337 338 338 334 333 333 333 334 335 334 334 333 333 334 335 336 337 336 336 334 333 332 331 330 330 330 329 328 327 326 326 325 325 324 324 323 322 321 320 319 317 316 315 314 313 312 312 311 310 309 307 307 308 309 310 310 309 309 308 308 308 308 307 308 307 308 307 306 306 307 307 306 304 304
336 337 337 337 337 337 338 337 338 337 338 337 338 338 334 333 334 333 334 334 333 332 332 332 333 334 336 337 336 335 334 332 332 331 330 330 330 329 328 327 326 325 325 324 323 323 322 321 320 319 317 315 314 313 312 311 311 310 308 306 305 305 305 306 308 308 308 307 307 306 306 306 306 305 305 305 305 305 305 306 307 307 306 305 305
336 337 337 337 337 337 337 337 337 337 337 337 337 338 335 333 332 333 334 333 331 331 333 333 332 333 335 336 335 334 333 332 331 330 330 330 330 328 327 326 326 324 324 323 322 322 321 320 319 317 315 314 313 312 311 310 309 308 306 304 304 304 304 305 306 306 306 305 304 305 305 304 304 304 304 304 304 304 305 305 306 307 306 305 306
336 337 336 337 337 337 337 337 338 338 338 338 338 338 336 333 331 333 333 332 332 332 334 333 332 333 335 335 334 334 333 332 331 330 330 329 329 328 327 326 325 323 323 323 322 321 321 319 318 316 314 313 312 311 310 309 308 306 304 303 303 302 302 303 305 304 304 304 303 303 303 303 303 303 303 303 303 303 304 304 304 305 306 306 306
336 336 336 337 337 337 337 337 338 338 338 338 338 338 337 334 332 332 332 333 333 333 334 334 334 334 335 334 333 333 332 331 331 330 329 329 328 328 327 325 323 322 322 322 321 320 319 318 317 315 313 312 311 310 309 308 307 305 303 302 301 301 301 302 303 303 303 303 302 302 302 303 303 302 302 302 302 303 303 303 303 303 304 305 306
336 336 336 336 337 337 337 337 337 338 338 338 338 337 337 335 332 332 332 334 333 332 333 335 335 335 334 333 333 333 332 331 331 330 329 329 328 327 326 324 322 322 322 322 320 319 318 317 316 314 313 311 310 309 308 308 306 304 302 301 300 299 300 302 302 302 303 303 302 302 302 303 302 302 301 301 301 301 302 302 302 302 303 304 305
335 336 336 335 336 337 337 336 337 338 338 338 338 338 338 335 332 332 333 333 333 332 333 335 335 335 333 332 332 332 331 331 331 330 329 328 328 327 325 323 322 322 322 321 320 319 318 317 315 314 312 310 309 308 307 306 305 303 301 300 299 298 299 302 302 302 302 303 302 301 302 302 302 301 301 301 300 300 300 301 302 302 302 302 303
335 335 335 335 336 336 336 336 336 337 338 338 338 338 338 335 333 333 333 332 332 332 334 335 335 334 332 331 332 331 329 330 330 330 329 328 327 326 325 323 322 322 322 321 320 318 318 317 315 313 312 310 308 307 306 305 303 301 300 299 298 298 300 303 303 302 302 303 302 302 301 301 300 300 301 301 300 300 300 301 301 301 301 301 302
335 335 335 336 337 336 335 336 336 337 338 338 338 338 337 336 334 333 333 333 332 333 334 335 334 332 331 331 331 330 329 329 330 329 329 328 327 325 324 323 322 322 321 321 319 318 317 316 315 313 311 309 307 306 305 304 302 301 299 299 298 299 302 303 304 303 303 303 303 302 301 300 299 299 299 300 300 300 300 300 301 301 300 300 300
335 335 336 336 337 336 335 336 336 337 337 338 339 338 337 336 335 334 334 333 333 333 333 334 333 331 330 329 329 329 329 329 329 329 328 327 326 324 323 322 322 321 320 320 318 317 317 316 315 313 311 309 307 305 304 303 301 300 299 299 299 300 303 304 304 303 303 303 303 302 302 301 300 300 300 299 300 300 301 300 300 300 300 300 299
335 336 337 337 337 336 336 337 337 336 337 338 338 338 337 336 335 335 334 333 333 334 333 332 332 331 330 329 328 328 329 329 330 329 328 327 325 323 323 322 321 320 320 319 317 317 317 316 315 313 311 309 306 304 303 302 301 300 299 299 299 300 303 304 304 304 304 303 303 303 302 302 301 301 301 300 300 300 301 300 300 300 300 300 299
336 337 338 337 337 337 337 337 337 337 338 337 338 338 337 336 335 334 334 332 332 333 333 331 331 330 329 328 327 328 329 330 330 329 328 326 324 323 323 322 320 320 319 318 317 317 317 316 315 313 311 309 307 305 303 301 301 300 300 300 299 301 302 303 304 304 304 304 303 303 303 303 302 301 301 300 300 300 300 300 300 300 300 300 300
336 338 339 337 337 337 337 338 338 337 338 337 337 338 337 335 335 334 333 332 332 332 332 330 329 329 328 328 328 328 329 330 329 328 327 325 324 323 322 321 320 319 318 317 316 317 317 316 314 313 311 310 307 305 303 302 301 300 300 300 300 300 302 302 303 303 303 304 304 303 303 303 302 302 301 300 300 300 300 300 300 300 300 300 300
335 337 339 338 336 336 336 338 338 337 338 337 337 337 336 335 335 334 333 332 331 331 331 329 327 327 327 327 328 328 329 330 329 328 326 325 323 322 322 321 321 319 318 317 316 317 316 316 315 313 312 310 308 306 304 302 301 301 300 300 300 300 301 301 301 302 303 304 304 304 303 303 303 302 301 301 300 300 300 300 300 300 300 300 300
335 337 338 338 337 336 337 338 338 338 337 337 337 336 335 334 333 332 332 332 331 330 329 327 325 326 327 327 327 328 329 329 328 327 325 324 322 322 322 321 321 320 319 317 316 316 316 316 314 313 312 311 309 307 305 303 301 301 301 301 301 301 301 301 301 301 302 303 304 304 303 303 303 302 301 301 300 300 300 300 300 300 300 300 301
335 336 338 338 337 336 337 338 338 338 338 337 337 336 335 333 332 331 332 333 332 330 328 325 324 325 326 326 327 328 328 327 326 325 324 322 322 322 321 321 321 321 320 318 317 317 316 315 314 313 312 311 309 308 306 303 302 301 302 301 301 301 302 301 301 301 301 302 303 303 303 303 302 301 300 300 299 299 300 300 300 300 301 301 300
335 336 337 338 338 336 337 338 338 337 337 337 337 336 335 333 331 330 330 331 332 330 327 325 325 325 325 325 327 327 325 325 324 323 322 322 322 321 321 321 321 321 320 318 317 316 316 315 314 313 311 310 309 308 306 304 302 302 302 302 302 302 302 302 302 302 301 302 302 302 302 302 301 300 300 299 299 298 298 299 299 299 300 301 301
335 335 336 337 338 337 336 337 337 336 336 336 336 335 334 333 331 330 329 330 330 328 326 325 325 324 324 325 325 325 324 323 323 322 322 321 321 321 321 321 320 320 319 318 316 316 315 315 314 313 311 310 309 308 306 304 302 301 302 303 303 302 302 302 303 303 303 302 302 302 302 302 301 301 300 300 300 299 298 298 298 298 298 299 300
334 335 335 336 337 337 336 337 337 337 336 335 334 334 333 332 331 330 330 329 328 327 326 325 325 325 324 324 324 323 322 322 322 322 322 321 321 320 320 319 319 319 318 316 315 315 315 314 314 313 311 310 309 307 306 305 303 301 302 303 303 303 303 302 302 303 303 303 302 302 302 302 301 301 301 300 300 299 299 298 298 298 298 298 298
334 334 334 334 336 337 337 337 337 336 336 336 334 333 332 331 330 330 328 327 327 327 326 325 325 324 323 322 322 322 321 321 322 322 321 321 320 319 318 318 317 316 316 315 315 314 314 314 313 313 312 310 309 307 305 305 303 301 301 303 304 304 303 303 302 302 302 302 302 302 302 302 301 301 301 301 300 300 299 299 299 299 298 298 298
333 334 334 334 334 336 337 336 336 335 336 335 334 332 331 330 329 328 327 326 326 326 325 324 324 323 322 321 322 322 321 321 321 321 320 319 318 317 316 315 315 315 314 314 314 314 313 313 313 312 311 310 308 306 305 304 303 301 300 302 304 304 304 303 302 301 302 302 302 302 302 302 301 301 301 301 301 300 300 300 300 300 299 299 298
333 334 334 335 335 336 336 336 336 335 335 335 333 332 331 329 328 327 326 325 326 325 324 323 323 322 321 321 321 321 321 320 319 319 319 318 317 315 314 314 314 314 314 314 314 314 313 312 312 311 310 308 307 306 304 304 303 301 300 301 304 304 304 304 303 302 302 302 302 302 302 301 301 301 301 301 301 301 301 301 301 301 300 299 298
333 333 334 335 336 336 336 336 336 335 335 334 332 331 330 328 328 328 326 325 326 325 324 323 322 322 322 321 320 321 320 318 318 318 317 316 315 315 314 314 314 314 314 314 314 313 312 311 311 309 309 307 306 305 304 303 303 301 299 300 303 304 304 304 303 302 302 302 302 301 301 301 301 301 301 300 300 301 301 302 301 301 301 300 299
333 333 334 335 335 336 336 336 335 335 334 333 331 330 329 328 327 327 326 325 325 325 324 323 322 321 321 321 321 320 319 318 318 317 317 316 315 314 314 314 314 313 313 313 313 312 311 311 310 308 307 306 305 304 304 303 302 301 298 300 303 303 303 303 302 302 302 302 302 302 301 301 301 301 301 300 300 300 302 301 301 301 301 301 300
333 334 334 334 335 335 335 335 335 335 333 332 331 330 329 327 326 325 325 325 325 325 323 323 321 320 321 321 320 319 319 319 317 316 316 314 313 313 313 313 314 314 313 313 312 311 310 310 309 308 307 306 305 304 303 303 302 299 298 300 302 302 302 302 302 301 301 301 301 301 301 301 301 301 301 300 299 300 302 301 301 301 301 301 300
333 333 333 333 334 335 335 335 335 334 333 331 330 329 328 326 326 326 325 325 325 324 323 322 320 319 319 320 319 319 318 317 315 315 316 314 313 313 313 313 313 313 313 312 310 309 309 308 308 307 307 306 305 303 302 302 300 297 297 300 302 302 301 301 301 301 301 301 301 301 300 300 300 300 301 301 300 300 301 301 301 301 301 300 299
332 332 332 332 333 334 334 335 335 333 332 331 331 329 328 326 326 326 326 325 324 323 321 321 319 318 318 318 319 319 318 316 316 317 316 314 314 313 313 313 312 312 311 310 309 308 308 307 306 306 306 304 303 301 300 299 297 296 298 300 301 301 301 300 300 300 300 300 300 300 300 300 300 300 300 301 300 300 300 301 301 301 301 300 299
330 330 330 331 332 333 334 334 334 332 330 329 330 330 329 327 326 326 325 324 323 322 321 320 319 318 318 317 317 318 316 317 319 317 312 311 312 313 312 311 311 311 310 309 308 307 306 306 305 304 303 301 299 297 297 297 297 297 298 299 300 300 300 299 300 300 300 300 299 299 299 299 299 300 300 300 300 299 299 300 300 300 300 299 298
327 327 329 330 331 332 333 333 332 330 328 328 329 329 328 326 324 323 324 322 322 321 320 319 319 317 317 316 314 314 316 318 317 313 309 309 311 312 311 310 310 310 309 307 306 305 304 303 301 300 299 298 297 296 296 297 297 298 298 298 298 298 298 299 299 299 299 299 299 298 298 298 299 299 299 299 299 299 299 299 299 299 299 298 298
327 327 328 329 330 331 331 331 329 328 327 327 327 326 326 324 321 320 321 320 320 319 318 318 317 316 316 314 312 314 317 318 315 311 311 311 310 309 309 309 309 309 307 305 304 302 301 299 297 297 297 296 296 296 296 297 297 297 297 297 297 297 297 298 299 299 299 298 297 297 297 297 297 298 298 298 298 298 299 299 298 298 299 299 298
328 327 327 328 329 329 329 328 327 326 325 325 324 324 323 321 319 318 319 320 319 318 317 316 316 316 315 313 313 316 318 316 313 312 313 312 310 308 307 307 307 307 306 303 301 298 297 295 295 296 296 296 296 296 296 297 297 297 297 297 297 297 297 297 298 298 298 297 296 296 296 296 296 297 297 298 298 298 298 298 298 298 298 298 298
327 326 326 327 328 328 327 325 324 324 324 323 323 322 321 319 317 317 319 319 318 318 317 316 315 315 313 312 314 317 315 312 310 310 311 310 309 307 306 306 305 305 304 302 299 297 295 295 295 295 295 295 296 296 296 296 296 296 297 297 297 297 296 296 297 297 297 297 296 296 296 296 295 295 296 296 297 297 297 297 297 297 297 297 298
326 325 325 326 326 326 325 323 321 322 323 323 322 322 320 318 317 317 318 319 318 317 316 315 314 313 312 313 315 313 310 309 310 310 310 310 309 307 306 305 304 303 303 301 299 297 296 295 296 295 295 295 295 296 296 296 296 296 296 296 296 297 296 296 296 296 296 296 296 296 296 296 295 295 295 295 296 296 296 296 296 296 296 297 297
325 325 325 325 324 323 323 321 320 321 322 322 323 322 319 318 317 318 318 318 317 316 315 314 314 313 313 314 313 310 308 309 309 309 309 309 308 307 306 305 303 303 302 300 299 298 297 297 297 297 296 295 295 295 296 296 296 296 296 296 296 297 297 297 297 296 296 296 296 296 296 296 295 295 295 295 295 295 296 296 296 295 296 296 296
324 324 324 324 323 322 322 320 319 320 321 322 321 320 319 318 317 317 317 316 316 316 315 313 313 313 313 312 311 310 309 308 307 307 308 307 306 306 307 307 306 306 304 302 301 300 299 299 299 299 298 297 297 296 296 296 296 296 296 296 296 296 297 297 297 297 297 296 296 296 296 296 295 295 295 295 295 295 295 295 295 295 295 295 294
323 323 324 323 322 321 320 319 318 319 320 320 320 319 318 318 317 317 317 316 315 315 314 313 313 313 312 311 310 309 308 307 306 307 307 308 308 308 308 309 309 308 308 307 306 304 302 302 301 301 300 300 299 299 299 298 298 296 296 296 296 296 297 297 297 297 297 297 297 296 296 296 296 296 296 296 296 296 295 295 295 295 295 295 295
322 322 322 322 321 320 319 318 317 318 319 319 318 317 318 318 318 317 317 316 314 314 313 313 313 312 311 311 309 307 307 308 308 306 305 305 305 305 307 308 308 307 308 308 307 306 305 303 303 303 302 302 301 301 301 301 300 298 296 296 296 296 296 297 297 297 297 297 297 298 297 297 297 297 297 296 296 296 295 295 295 295 295 295 295
322 322 321 320 319 319 318 317 317 317 317 318 318 317 317 318 318 317 317 315 314 314 313 313 312 311 311 310 309 307 306 307 307 305 304 303 302 302 303 304 305 307 308 307 306 304 304 303 303 302 303 302 302 302 302 302 301 300 298 297 296 296 296 297 297 297 297 297 297 298 298 297 297 297 297 297 296 296 295 295 295 295 295 295 295
Wind_Speed
9 8 10 13 15 16 17 16 16 17 15 15 17 18 19 19 19 19 19 20 19 19 17 14 12 10 10 10 10 11 10 10 11 11 10 10 9 8 8 8 9 9 6 5 5 4 3 2 2 3 2 2 2 3 3 3 4 3 4 6 7 7 7 11 12 8 5 2 4 4 4 7 10 13 14 14 13 11 10 11 15 19 21 24 25
7 7 10 13 14 15 17 17 17 16 16 17 18 19 19 20 20 19 19 19 18 18 17 14 13 12 10 9 10 12 11 11 12 12 11 10 10 10 10 11 10 9 7 5 4 3 2 2 2 1 1 1 2 3 2 3 4 4 5 5 6 7 8 12 14 8 5 4 0 1 2 5 7 10 13 14 13 12 9 9 13 18 22 23 24
11 10 10 13 15 15 16 18 18 17 18 18 18 19 19 20 19 18 19 18 17 18 18 16 16 15 13 12 12 13 13 12 12 12 12 11 12 12 12 12 10 8 6 4 3 2 2 1 1 1 1 1 2 2 2 3 4 5 6 5 4 5 7 11 14 11 7 5 2 1 2 1 4 5 9 11 12 13 11 9 10 14 20 22 22
13 13 11 12 15 15 16 18 18 17 18 18 18 18 19 18 18 19 20 18 19 21 22 21 19 17 15 14 14 14 14 14 12 11 12 13 14 14 14 12 10 8 6 4 2 1 1 1 1 1 1 2 2 1 2 3 4 5 6 6 5 4 6 9 11 11 9 6 3 1 2 2 1 3 7 5 8 12 12 11 9 10 16 20 19
13 13 11 11 14 15 15 17 18 16 17 19 19 19 20 17 16 20 20 18 20 23 26 26 23 19 16 15 15 15 13 12 12 10 12 15 16 16 14 12 9 7 5 3 2 1 2 1 1 1 1 1 1 1 3 4 4 5 6 7 8 6 5 7 9 10 11 9 6 3 2 2 2 6 7 2 5 9 11 12 10 10 14 16 16
13 12 11 11 13 14 15 16 18 17 16 19 21 21 22 20 18 20 18 18 20 23 28 29 25 23 21 19 18 15 13 12 12 12 15 18 17 16 14 11 8 6 4 3 3 2 2 2 1 1 1 2 2 3 4 4 5 6 7 8 9 9 6 5 7 8 9 10 9 7 5 4 3 4 5 2 2 5 8 11 11 11 12 14 15
13 12 11 11 13 15 15 16 18 18 16 18 21 21 22 23 24 23 20 18 20 24 28 27 25 25 24 23 21 17 15 14 13 16 18 17 15 14 13 10 7 6 5 4 3 3 2 2 1 2 2 3 3 3 4 5 5 6 7 8 8 9 8 7 6 6 6 8 8 7 7 6 5 4 3 3 3 3 5 8 11 10 11 13 14
11 11 11 11 14 15 16 17 16 17 16 17 20 20 22 27 29 30 27 20 20 26 28 25 24 26 26 24 22 17 15 17 18 19 17 13 13 14 13 10 8 6 5 5 4 3 2 2 2 3 3 4 3 4 5 6 6 6 7 8 8 10 11 10 8 7 6 6 6 6 6 6 7 7 6 4 4 3 3 6 9 10 9 11 12
11 11 11 11 14 16 17 18 17 18 18 18 20 20 23 27 29 34 32 21 21 28 28 24 24 26 26 25 22 17 18 21 20 17 13 11 13 14 12 10 9 8 6 5 4 4 3 3 4 4 4 4 4 5 5 5 5 6 7 8 9 11 12 11 11 10 9 8 6 5 5 5 6 7 8 7 5 4 4 5 8 9 7 10 12
11 11 11 11 15 17 17 19 19 19 20 19 21 22 23 23 27 35 32 20 21 28 27 25 26 27 27 26 24 22 22 23 19 14 15 15 14 13 13 11 10 9 7 6 5 4 3 4 5 5 4 4 5 5 5 4 5 6 8 9 10 11 12 12 12 11 11 11 10 7 7 6 5 6 8 9 7 5 5 5 7 8 6 9 13
11 10 11 12 15 17 18 20 20 19 19 19 21 22 23 21 22 29 28 22 23 27 28 28 30 30 28 26 25 25 25 25 21 17 19 20 15 12 13 13 11 9 7 6 5 4 5 6 7 6 4 4 5 5 4 5 6 7 8 9 10 11 11 11 11 11 11 12 12 10 9 8 7 7 8 9 8 6 6 5 7 8 6 8 12
11 10 10 11 14 17 19 20 20 19 19 19 20 20 20 17 22 26 26 27 26 27 30 32 32 30 28 25 24 25 26 26 24 22 22 22 17 14 15 14 12 10 8 7 6 5 7 8 7 5 5 5 5 5 4 5 6 7 8 9 10 10 10 10 10 11 11 12 12 11 10 10 10 9 8 8 7 6 6 6 7 7 5 8 11
11 10 11 11 12 15 18 20 21 22 21 19 19 18 16 22 24 24 24 25 26 28 31 31 32 30 27 24 23 24 25 26 26 25 24 23 20 18 18 16 13 10 8 7 7 8 9 9 7 5 5 5 5 5 5 6 7 8 9 10 11 11 11 11 11 12 12 12 12 12 11 11 11 10 8 7 6 5 6 6 7 6 6 7 9
11 10 11 12 12 15 18 20 21 22 21 20 19 18 21 28 27 24 22 23 26 26 26 26 27 27 25 23 23 24 25 26 26 25 25 23 20 19 18 16 13 11 9 8 9 10 10 9 7 6 6 6 6 6 6 7 8 9 11 11 13 13 12 13 13 13 13 14 13 13 13 12 11 11 9 8 7 6 7 7 7 5 6 7 8
12 12 12 13 15 17 17 18 20 22 22 21 20 19 25 30 28 22 19 22 22 19 20 23 24 23 23 22 22 23 24 26 26 25 24 23 20 19 17 15 13 11 10 9 11 12 10 9 7 7 8 7 7 6 7 8 8 10 12 13 14 14 13 14 14 14 15 15 15 15 14 13 12 11 10 9 8 7 7 7 7 4 4 6 7
13 13 13 14 16 18 18 18 20 22 22 22 21 21 24 28 27 22 21 23 20 18 20 22 22 22 21 21 22 23 24 25 25 24 24 22 20 18 16 14 12 11 11 12 13 12 10 9 9 9 9 9 8 7 7 8 9 11 13 14 15 15 14 15 15 15 16 16 16 15 14 13 12 11 10 9 9 8 8 8 8 6 4 4 5
14 13 14 14 15 17 19 20 21 22 23 23 22 21 22 27 31 29 26 23 22 22 23 23 23 23 21 21 23 23 24 24 25 25 24 22 19 17 15 13 12 11 12 14 14 12 11 10 10 11 10 10 8 7 8 9 10 12 14 15 15 15 14 15 15 16 16 16 16 16 14 13 12 12 11 10 10 10 9 9 10 8 7 4 4
14 14 14 13 14 17 19 21 23 23 23 22 22 22 21 26 33 32 25 22 23 25 25 25 25 22 19 20 21 23 24 24 25 26 25 22 20 18 16 13 13 13 15 16 15 13 12 12 11 12 11 10 9 8 9 9 11 13 14 15 15 14 14 16 16 16 16 16 16 16 15 14 13 13 13 13 13 12 11 11 11 11 9 8 5
14 14 13 12 14 18 20 21 22 22 21 22 22 22 21 25 33 32 25 22 23 23 24 24 23 20 17 18 20 24 25 24 25 27 25 23 21 19 16 14 15 16 17 17 16 14 14 13 13 13 12 11 9 9 9 10 11 14 15 16 15 14 15 17 17 17 17 16 17 17 15 13 13 14 15 16 16 15 13 12 12 13 12 10 8
13 14 14 13 14 18 21 21 21 20 20 22 22 21 20 24 31 29 25 22 21 21 22 22 21 18 17 18 21 24 26 25 26 27 25 23 21 19 17 16 17 18 18 17 16 15 15 14 14 13 12 11 10 10 10 11 13 15 16 16 16 15 17 18 17 18 18 17 18 17 15 14 14 15 16 17 18 18 17 14 12 13 13 11 10
13 14 15 14 15 18 21 20 19 18 19 21 22 21 20 24 27 25 24 23 22 22 22 21 20 18 19 22 23 24 24 26 28 27 25 24 21 19 18 17 19 19 18 18 16 16 16 15 15 14 13 12 11 11 11 12 14 16 16 17 16 17 18 18 17 18 19 18 17 16 16 17 18 17 17 17 17 17 17 16 14 14 14 13 11
13 14 14 13 14 17 20 20 19 18 20 22 22 21 21 23 25 24 22 24 24 22 21 21 20 17 18 22 24 23 23 26 28 27 26 24 22 20 19 18 19 19 19 18 17 17 17 16 15 14 13 12 12 12 12 13 15 16 17 18 18 18 19 18 16 17 17 17 16 15 16 18 20 20 19 18 17 16 16 16 16 15 14 14 12
12 12 12 12 14 17 19 20 20 20 21 21 21 23 23 22 25 25 23 23 25 23 21 20 19 17 17 20 23 23 23 26 29 28 26 25 23 22 20 20 20 20 20 18 18 18 18 17 16 15 14 13 13 13 13 14 15 16 18 19 19 19 19 17 16 16 15 15 16 15 16 17 18 19 19 18 17 15 15 15 16 16 15 15 14
11 11 10 11 14 16 17 18 20 21 21 21 21 23 23 23 24 25 24 23 24 24 21 20 19 17 17 19 23 25 25 28 29 28 27 26 25 24 22 21 21 21 20 19 18 19 19 18 17 15 14 14 14 14 13 14 15 16 18 19 19 20 19 16 15 15 15 14 14 14 15 15 15 16 16 16 17 16 14 14 14 15 15 14 14
11 11 11 13 14 15 15 17 18 20 21 23 22 21 22 24 24 24 24 23 23 23 21 20 20 19 17 18 21 24 27 30 29 28 29 27 26 25 23 22 22 21 21 21 21 20 20 19 18 16 15 14 14 14 14 14 15 16 18 19 20 20 19 17 16 16 15 14 14 14 13 13 14 15 14 14 16 16 15 15 14 13 14 14 14
13 13 13 14 14 14 16 17 19 21 22 23 22 19 20 23 23 24 24 22 22 23 21 21 22 21 19 19 20 24 28 30 30 30 30 28 27 25 24 24 23 22 23 23 22 22 21 19 18 17 16 15 14 14 14 15 16 17 18 19 20 20 20 19 17 16 15 14 13 13 13 13 13 14 14 14 15 15 15 15 15 14 14 14 13
14 13 13 14 14 14 16 17 20 22 21 22 21 18 19 21 22 24 25 22 22 23 21 21 22 21 21 20 20 24 29 30 30 31 30 28 27 26 26 26 24 23 24 24 23 23 22 21 19 18 16 15 15 15 14 14 16 17 18 19 20 21 20 19 18 17 15 14 12 12 12 12 12 13 13 13 13 13 14 14 14 13 13 13 13
14 13 13 14 14 14 15 15 18 21 21 22 20 17 19 22 22 24 26 24 23 22 19 18 21 22 21 20 20 25 31 31 31 31 29 27 27 27 27 27 26 25 25 24 24 24 23 22 20 19 17 16 15 15 14 15 16 17 19 19 20 20 19 19 18 16 15 13 12 11 11 11 11 12 12 12 12 11 12 12 13 12 12 12 12
15 15 14 14 14 14 14 14 16 19 22 22 21 19 19 22 23 24 26 27 26 23 18 18 24 24 20 19 25 29 31 31 31 31 29 28 27 27 28 28 27 25 25 24 24 23 23 23 22 20 19 17 16 15 13 14 15 18 19 19 20 19 18 18 16 15 14 13 11 11 11 10 11 12 13 13 13 12 12 12 12 11 11 12 12
16 15 14 13 12 12 14 14 14 18 22 21 20 21 20 21 24 25 24 26 26 22 18 19 22 22 21 25 30 32 32 32 31 30 29 28 27 27 28 28 27 26 25 25 24 23 23 23 23 22 20 18 16 14 12 12 13 16 19 19 19 18 17 16 15 14 13 12 11 11 10 10 10 11 12 13 13 14 14 14 14 13 12 12 12
15 15 14 13 12 11 13 14 13 16 20 20 19 20 21 22 24 24 22 21 22 21 19 19 21 22 26 31 33 33 33 33 31 30 29 28 27 27 28 28 28 27 26 26 25 24 23 23 23 23 21 19 17 14 13 12 11 14 18 19 18 18 17 15 14 13 12 11 11 11 10 10 10 10 10 11 12 13 14 14 15 16 16 16 15
15 16 16 15 14 13 13 14 16 17 18 18 18 19 21 22 22 24 23 20 21 22 20 20 24 28 31 34 35 34 34 32 31 29 28 26 26 27 27 28 28 28 28 27 26 24 24 23 23 23 22 20 18 15 14 13 12 12 16 18 18 17 16 15 14 12 12 12 11 10 10 10 10 10 9 9 10 11 12 12 13 14 17 18 18
16 16 17 17 15 14 14 15 18 21 20 18 18 17 18 19 21 23 25 24 25 26 22 23 29 33 34 35 36 35 33 32 30 28 26 25 25 26 27 28 29 28 28 28 26 25 24 23 24 24 23 21 19 17 15 14 12 12 14 17 17 16 16 16 14 13 12 11 11 10 10 11 10 10 10 9 9 9 10 11 11 12 14 16 17
15 15 16 15 15 16 17 17 18 21 21 20 20 19 17 17 19 21 25 28 28 25 25 28 31 33 34 35 36 35 33 32 30 28 26 25 25 27 27 28 28 28 29 28 26 25 24 24 24 23 23 21 20 19 17 15 13 12 13 16 17 15 16 16 15 13 12 11 11 11 11 11 11 11 10 9 8 8 8 8 8 9 11 12 14
15 15 14 13 14 17 19 18 18 20 22 22 21 21 21 22 23 26 29 31 28 24 25 27 28 31 35 35 34 34 33 32 30 28 27 26 26 27 28 28 28 28 28 27 26 25 24 24 24 23 23 22 21 19 18 15 14 12 13 16 17 15 15 15 15 14 13 12 10 10 10 10 11 11 10 9 8 8 7 7 7 7 8 9 10
14 15 15 15 16 17 18 18 18 19 21 22 20 21 25 28 30 33 31 27 25 26 29 27 25 30 36 36 34 34 33 32 31 29 27 27 27 28 28 29 29 29 28 27 26 25 25 24 24 23 23 22 21 20 18 16 14 13 14 17 17 16 15 16 15 14 14 12 11 10 10 10 10 11 10 9 8 7 7 6 6 6 6 6 7
13 15 17 18 18 19 19 20 20 19 20 23 24 24 26 25 25 28 26 23 23 26 29 30 29 31 36 37 35 35 34 33 31 29 28 28 29 29 29 29 29 28 28 27 26 25 25 24 24 24 23 22 21 20 17 16 14 14 16 19 19 17 17 16 15 14 14 12 11 10 9 9 10 10 10 9 8 7 6 5 6 5 5 5 5
14 14 15 17 18 19 20 20 21 20 20 24 27 29 29 24 20 21 21 22 23 23 24 28 29 32 37 39 37 35 34 33 32 30 29 29 30 30 29 28 28 27 27 26 26 25 24 24 24 24 23 22 21 20 18 16 15 15 17 20 19 17 17 17 15 14 13 12 11 11 9 9 10 9 9 9 9 7 5 4 5 5 5 5 4
14 14 14 16 18 18 19 20 20 20 22 25 27 28 29 26 23 22 22 21 21 20 22 26 28 30 35 39 38 36 34 33 32 29 29 30 31 30 29 28 26 26 26 26 25 24 24 24 24 23 22 21 20 20 18 16 16 16 18 20 18 16 17 17 15 14 14 13 12 11 9 9 9 8 9 10 9 7 5 4 3 3 4 4 4
11 12 13 16 17 16 18 20 19 19 22 28 29 27 25 24 23 22 20 18 17 17 21 26 29 31 33 36 38 38 35 33 31 28 29 31 31 31 29 28 27 25 25 25 24 23 24 24 23 22 21 20 20 20 19 17 17 17 19 19 18 16 16 17 15 14 14 13 12 11 9 9 8 8 9 10 9 7 5 3 3 2 3 3 3
11 13 14 15 15 15 17 19 19 19 22 26 29 26 23 21 21 19 17 18 20 22 25 29 31 33 34 34 35 36 36 33 29 28 29 30 31 31 30 29 27 25 23 23 23 23 24 23 22 21 21 20 21 21 20 18 18 18 18 19 18 17 17 17 15 13 12 11 11 11 10 9 8 8 9 10 9 8 6 4 3 2 1 1 2
12 15 15 14 13 13 13 14 16 19 22 25 27 24 21 18 18 18 20 21 23 26 29 31 32 32 31 31 31 32 32 29 27 28 30 31 31 30 30 29 27 24 23 23 24 24 24 23 21 20 20 20 21 21 20 20 19 18 18 19 19 19 19 17 15 12 11 10 10 11 10 9 8 7 8 9 8 7 6 5 4 2 2 1 2
12 13 13 13 12 12 12 11 13 17 22 26 25 22 20 14 13 16 17 18 20 23 26 28 30 30 29 30 31 30 27 26 28 29 31 32 31 29 29 28 26 25 24 24 25 24 24 23 21 21 21 21 21 21 20 20 20 19 19 19 18 18 18 16 14 12 11 10 10 11 10 9 8 7 7 7 6 6 6 5 4 3 3 3 2
10 11 13 13 11 11 11 10 12 17 21 24 24 24 21 11 12 15 17 18 21 24 25 25 27 29 30 31 32 30 27 27 29 31 33 34 32 30 29 27 26 26 26 26 25 25 24 24 23 22 22 23 22 22 21 20 20 20 19 19 17 16 16 16 14 12 11 11 11 10 9 8 7 7 7 6 6 6 5 5 4 3 3 3 4
10 10 12 11 10 10 10 9 11 14 16 19 22 24 21 14 14 17 20 21 24 27 26 27 28 29 29 31 32 30 28 28 30 31 33 34 33 31 30 29 28 28 28 28 27 26 25 26 25 23 24 24 24 24 23 21 21 20 20 19 18 17 16 16 14 13 12 11 10 9 8 7 6 5 5 6 6 6 5 5 4 4 3 3 4
11 10 10 9 9 10 9 9 10 12 14 16 19 22 21 19 19 20 21 22 25 26 27 28 29 28 28 31 32 29 27 29 30 31 32 33 32 32 31 30 29 29 28 28 28 28 28 27 26 25 25 25 25 25 24 23 23 22 21 20 19 18 17 16 14 13 12 11 10 9 7 6 5 4 4 5 6 6 5 5 4 4 4 3 3
11 11 10 9 9 8 9 11 11 12 14 16 17 19 20 21 22 23 23 24 26 26 26 27 29 29 30 32 31 28 27 29 30 31 31 31 31 31 31 30 30 29 28 27 27 28 29 28 27 26 26 27 27 27 25 25 25 24 23 22 21 20 19 17 15 14 14 13 12 10 8 6 5 3 3 4 5 5 5 5 5 5 4 4 4
10 11 11 10 9 9 9 10 11 12 15 15 15 16 19 21 23 25 26 27 27 27 27 27 28 30 31 30 29 28 28 30 30 30 30 30 30 31 31 31 30 30 29 28 28 30 31 30 29 29 28 26 25 25 26 27 27 26 25 24 24 23 21 18 16 15 15 14 13 12 10 8 6 5 4 4 4 5 5 5 5 5 5 5 5
10 10 11 10 9 9 9 9 10 13 14 13 13 16 19 22 24 26 29 29 29 27 25 24 26 29 29 28 27 27 28 29 29 29 29 29 30 32 33 32 31 30 28 26 26 29 33 33 33 33 31 27 24 26 30 29 28 26 26 26 26 25 23 20 18 16 15 15 14 13 12 11 9 7 6 5 4 5 5 5 6 6 5 5 5
10 10 10 9 9 9 10 10 11 13 13 12 13 15 19 22 24 27 30 31 30 26 22 21 23 25 27 28 27 24 25 29 31 30 28 26 26 28 30 30 30 29 27 24 23 25 28 31 33 34 33 31 30 31 31 29 26 25 25 25 25 25 23 21 18 16 15 16 16 14 12 11 10 8 7 6 5 5 5 5 6 7 7 6 6
11 11 10 10 10 10 11 11 12 12 13 13 13 15 18 20 22 25 28 29 29 26 22 21 23 25 27 29 27 23 25 29 30 29 28 25 23 23 24 25 26 27 25 24 23 24 25 28 31 33 32 32 32 30 28 27 27 26 25 24 24 24 23 21 19 17 16 17 17 15 13 12 11 9 9 7 6 6 6 6 6 7 7 8 8
Wind_Direction
218 193 182 187 195 195 190 186 188 194 196 193 189 188 187 182 182 185 190 192 191 191 189 184 185 189 186 183 182 186 195 196 184 179 181 185 191 191 185 181 176 171 166 165 181 197 216 249 283 291 297 308 323 340 341 352 10 24 24 17 19 18 16 18 15 13 17 69 147 141 123 111 88 70 63 58 52 47 47 47 41 35 34 32 28
206 186 176 182 191 191 187 185 186 189 192 193 189 187 188 184 180 182 188 189 186 184 182 183 187 190 193 185 176 180 186 185 178 177 181 182 183 180 176 176 174 169 164 168 186 210 241 265 277 268 300 354 353 355 357 18 32 32 26 17 19 31 31 23 24 28 14 7 120 171 133 136 115 76 60 56 51 45 44 47 41 34 32 28 23
218 208 191 188 188 185 183 186 190 191 193 194 191 189 189 186 180 182 187 182 178 180 179 187 194 195 198 192 183 181 178 177 177 177 180 179 175 173 173 172 169 165 163 172 195 223 257 254 225 168 93 40 19 10 25 37 34 27 25 25 26 44 46 31 31 35 18 352 316 326 41 145 162 94 53 53 52 47 49 47 42 37 32 27 22
224 217 204 193 186 183 184 186 189 192 194 194 192 192 191 188 182 183 185 177 174 177 178 188 195 194 196 191 184 177 169 170 173 172 175 175 170 169 169 167 164 163 162 169 195 219 223 195 154 132 106 58 36 30 54 40 31 22 23 35 44 54 56 43 40 39 30 16 356 1 0 348 144 18 8 46 57 45 46 44 41 38 30 25 24
226 216 205 194 184 182 184 185 187 190 195 195 193 191 189 189 188 188 185 173 173 177 179 186 188 185 180 172 169 162 155 161 162 161 168 169 166 166 165 162 162 160 156 159 173 184 168 146 132 128 110 80 73 71 64 42 25 23 28 44 50 55 66 59 53 48 45 45 40 38 1 8 34 345 340 37 64 41 41 37 37 38 28 24 25
230 220 206 194 182 179 183 185 186 192 197 196 196 193 188 187 189 193 189 174 172 176 179 182 182 181 172 162 160 153 149 160 162 161 165 165 164 163 161 158 157 153 149 155 158 159 148 121 121 136 130 115 101 77 58 37 22 30 39 47 50 54 69 74 62 54 54 57 55 55 51 44 25 339 332 357 37 42 39 30 30 32 27 25 26
229 223 206 188 179 179 186 187 187 193 196 196 199 196 189 189 188 191 194 183 174 174 179 181 179 180 174 167 166 161 158 166 170 169 166 164 162 159 157 152 150 151 148 153 151 138 122 109 130 146 139 124 99 66 45 38 35 42 45 49 53 58 68 76 65 57 59 59 58 62 64 65 53 27 5 344 343 18 29 24 20 18 21 24 25
226 219 205 189 182 182 187 188 187 191 192 194 198 194 190 193 190 190 194 189 178 175 177 179 179 179 174 169 169 167 167 168 169 168 164 159 157 155 155 152 149 153 152 153 145 126 109 122 147 154 140 121 85 52 43 45 48 51 51 53 58 61 67 74 70 62 61 58 58 64 69 75 66 53 40 12 345 337 1 16 7 1 15 24 23
224 218 207 192 184 184 187 191 189 189 191 193 196 196 194 192 185 186 191 186 178 180 178 178 182 181 176 171 168 166 167 165 163 161 156 151 152 154 156 155 154 156 154 151 137 121 121 143 155 153 137 110 71 53 53 56 58 63 66 63 62 64 65 68 70 66 62 59 58 61 69 79 70 56 41 26 12 351 348 358 354 351 10 26 22
220 213 204 191 183 181 185 191 191 188 190 193 197 199 199 193 179 178 185 184 181 186 182 179 183 183 180 175 169 165 163 162 158 155 156 156 154 156 159 158 158 158 154 144 131 124 141 154 155 148 131 97 70 64 63 67 74 75 73 70 67 68 66 63 65 65 63 62 59 54 53 58 53 44 33 25 22 8 346 340 352 350 3 26 21
212 198 191 188 180 177 181 188 189 185 187 194 198 199 202 196 165 157 171 184 187 189 186 180 182 185 183 178 172 168 165 165 163 161 162 161 157 157 162 162 161 162 154 142 134 136 149 155 152 141 117 90 75 74 76 77 84 81 79 76 71 69 67 63 63 63 64 64 63 61 56 54 49 39 31 24 20 8 344 340 354 352 7 31 19
203 186 180 182 178 176 179 185 185 181 185 193 197 201 199 175 143 144 167 182 185 190 187 180 178 182 181 178 176 175 173 173 171 166 165 165 160 158 164 165 164 163 154 145 142 146 154 152 148 135 111 96 83 82 86 88 92 90 85 80 75 72 68 66 67 69 70 68 67 67 65 63 58 48 39 31 23 8 346 345 357 357 20 39 22
193 182 180 182 182 181 180 182 181 179 184 188 193 200 175 144 146 163 176 179 182 189 188 180 177 178 178 178 180 180 179 179 175 170 171 170 165 164 167 168 167 163 155 150 147 151 156 152 144 135 116 101 91 90 96 100 99 94 89 85 81 79 74 72 74 75 76 76 73 71 68 66 62 57 50 40 27 12 359 354 2 12 28 38 32
186 182 185 187 188 186 181 180 178 178 181 184 191 188 154 145 165 180 177 178 183 187 185 176 173 175 177 179 181 180 180 181 179 176 175 173 169 169 171 172 170 163 157 153 149 153 157 152 147 136 119 106 99 102 104 106 103 96 93 90 88 84 79 78 79 80 81 81 80 75 71 68 63 59 54 45 34 27 21 3 0 29 46 41 40
187 188 190 192 191 186 178 175 177 179 181 183 187 178 156 157 172 177 175 179 179 177 177 174 173 176 180 181 181 181 181 181 181 179 176 173 171 171 171 172 170 163 161 156 151 157 158 151 148 134 120 111 105 107 108 109 107 102 98 95 92 88 83 83 83 84 84 84 83 79 74 69 63 58 55 51 46 40 34 16 5 23 55 50 44
188 190 189 191 189 183 177 173 175 179 181 182 181 175 166 163 166 172 180 179 169 165 175 181 180 179 181 182 182 182 181 181 181 179 178 175 171 169 168 169 169 166 163 158 156 160 159 152 146 132 120 111 108 111 115 117 111 105 103 99 96 92 87 87 87 87 87 86 84 80 75 70 65 62 60 57 54 49 42 33 25 22 25 45 54
188 190 190 189 184 179 178 176 177 179 180 180 180 178 169 158 161 174 181 174 168 173 181 185 182 178 181 185 184 185 186 184 182 180 180 176 169 166 165 165 168 167 161 159 159 160 159 155 146 131 120 111 111 118 119 119 114 109 107 102 98 95 90 90 91 90 89 87 84 80 76 72 68 67 64 61 59 55 49 44 40 32 25 32 50
190 191 192 189 180 176 176 175 176 178 179 182 183 179 169 157 161 172 176 172 176 181 182 180 177 175 179 183 185 188 189 186 181 180 180 174 166 164 165 165 169 168 161 158 159 159 158 156 146 133 123 116 116 120 120 120 117 112 109 104 100 97 94 94 96 95 91 87 85 82 78 75 71 69 67 65 63 58 53 50 48 43 40 42 40
191 190 190 187 178 175 174 171 171 174 179 185 184 179 172 157 155 165 178 183 184 183 179 176 176 175 175 179 184 189 190 185 180 180 178 172 166 165 166 167 169 167 162 159 159 160 160 158 149 137 127 122 119 120 123 124 121 116 110 106 102 99 98 99 100 99 94 89 87 84 78 74 71 70 68 66 65 62 58 53 51 48 45 43 38
190 189 189 186 178 175 173 167 165 171 179 184 183 180 174 156 153 168 183 184 183 183 180 177 179 179 175 178 185 188 189 184 180 180 177 171 168 166 167 168 168 168 165 162 162 164 164 161 153 142 131 126 123 122 126 128 125 119 113 108 105 102 102 103 103 101 97 91 87 83 78 76 74 71 67 65 65 65 63 58 52 50 47 42 39
190 189 189 186 177 171 170 166 164 172 180 182 181 178 171 158 159 175 181 176 180 184 182 179 181 182 179 182 186 187 186 183 180 179 176 171 169 168 168 168 168 169 167 165 166 167 167 164 156 146 137 129 125 126 130 131 127 121 115 111 108 107 106 105 105 102 98 93 88 83 80 78 77 74 69 67 65 63 63 59 54 52 49 43 40
190 189 187 183 174 168 167 166 166 173 179 179 178 176 170 161 162 173 175 172 178 181 181 181 181 181 180 181 184 183 183 183 179 177 174 171 170 169 168 168 169 169 168 169 170 169 169 167 159 150 142 134 129 129 133 134 130 123 118 114 111 111 111 109 107 102 99 96 90 86 83 79 78 75 72 70 68 63 61 60 57 55 53 46 43
190 190 186 180 175 168 166 167 170 178 179 176 175 175 171 164 164 172 173 172 177 181 183 182 180 179 176 176 179 180 181 181 178 176 174 172 171 170 170 171 172 170 170 173 173 171 171 169 163 155 147 139 134 133 135 136 133 126 122 119 116 116 115 113 110 106 102 98 94 89 85 81 78 75 72 69 69 66 63 63 61 59 57 51 46
184 185 180 172 169 165 167 172 176 182 181 177 177 175 170 167 168 172 174 174 177 182 184 182 180 177 171 169 174 177 179 179 178 177 175 174 173 171 173 175 174 172 172 175 174 172 173 172 167 160 152 145 138 136 137 137 136 132 126 122 121 120 119 116 113 110 106 101 97 93 87 83 79 74 71 69 68 67 64 63 62 60 58 55 50
180 180 174 168 168 167 173 178 179 183 182 179 179 177 171 170 170 171 173 173 175 180 184 184 182 177 171 168 169 173 177 179 179 178 177 176 174 174 176 178 177 175 174 175 175 174 175 175 171 165 157 149 143 139 138 139 140 138 132 128 125 124 124 121 117 113 108 103 99 95 90 86 81 77 74 71 69 68 65 64 63 61 59 57 53
184 179 172 171 176 178 182 183 182 183 183 179 179 177 171 170 170 171 171 170 174 180 184 184 182 177 174 171 168 170 177 180 180 179 178 177 176 176 178 180 180 179 177 177 177 176 178 178 175 170 163 154 148 143 139 140 144 143 138 133 130 130 129 127 122 116 111 105 100 97 94 90 85 82 79 75 73 71 67 65 63 61 60 58 55
187 180 170 173 181 186 187 185 184 185 184 180 178 173 169 167 167 171 173 172 175 179 183 182 178 175 175 173 169 173 179 182 182 180 179 178 178 179 181 182 184 182 179 179 180 179 180 181 178 174 169 161 154 149 143 142 148 149 145 139 136 135 134 132 128 122 116 109 102 99 98 96 91 87 84 80 78 75 70 67 63 61 60 57 54
189 184 174 175 182 188 188 185 185 186 184 182 178 169 165 164 163 168 174 178 179 179 179 175 171 174 176 171 170 177 182 183 181 179 179 179 180 182 183 184 185 183 182 182 183 182 182 183 181 177 173 168 160 153 147 147 152 155 151 146 141 139 139 137 134 130 124 115 107 102 100 101 99 94 89 85 82 80 74 69 65 61 59 56 53
189 189 181 178 183 188 187 184 184 183 180 180 179 171 165 163 165 169 175 181 183 181 177 169 169 176 177 171 175 180 181 180 178 176 177 178 180 183 185 186 185 185 185 186 186 186 184 184 182 179 176 172 166 159 153 152 156 160 158 153 148 145 143 142 139 137 132 124 117 112 107 107 106 100 94 88 85 84 80 74 67 61 58 56 54
189 191 188 183 181 183 184 181 179 177 173 174 176 174 169 167 169 171 172 178 183 182 176 168 168 174 176 174 177 178 177 175 175 174 175 177 181 184 186 186 186 186 188 188 187 187 186 185 182 181 179 175 171 165 158 155 159 164 164 160 157 154 151 150 147 145 143 137 130 126 119 113 111 107 100 92 87 83 81 78 72 67 64 60 57
190 191 190 185 177 175 179 178 176 172 167 168 174 175 171 170 171 173 173 175 180 180 175 171 169 171 174 174 174 174 174 173 173 174 176 179 184 186 187 187 187 187 188 188 186 186 186 185 184 183 181 178 175 170 162 159 161 167 168 165 165 165 163 161 159 156 156 152 143 138 133 126 123 121 112 100 92 86 82 79 74 70 68 67 64
189 189 190 188 180 174 176 178 182 181 169 164 170 174 172 170 171 175 178 177 178 178 176 175 176 174 173 172 172 171 171 172 173 175 178 182 186 187 188 187 186 186 185 184 185 186 186 186 185 185 183 180 178 174 169 164 163 169 173 170 170 171 170 169 167 164 165 164 157 151 144 140 140 136 126 111 100 92 86 80 75 70 67 67 65
189 190 192 192 186 179 176 175 185 194 190 175 170 171 172 171 171 175 178 177 177 179 177 177 178 175 172 171 170 170 170 172 175 177 179 183 186 186 187 187 185 183 182 182 184 186 187 187 187 186 185 182 180 177 174 171 167 169 176 176 174 175 174 172 169 166 166 167 165 161 155 153 152 147 139 127 112 103 94 84 77 71 67 65 64
191 191 191 194 193 188 181 174 180 192 194 185 175 172 171 168 165 168 172 175 177 178 180 179 175 173 172 172 171 172 173 173 175 178 179 182 184 184 185 184 182 180 180 181 184 186 188 188 188 188 186 183 182 180 177 176 173 171 177 180 179 177 177 177 174 171 171 170 169 167 163 163 162 157 151 142 129 119 109 96 86 79 70 65 62
193 193 191 189 191 190 184 177 177 182 184 181 176 173 172 171 170 172 177 180 177 175 179 179 173 171 174 174 173 174 173 173 174 176 178 180 183 183 182 181 180 180 181 183 186 189 190 190 189 189 187 184 183 182 179 179 179 177 179 183 182 180 180 181 180 178 178 176 174 173 172 171 170 168 162 152 140 132 124 112 101 92 79 67 63
192 194 193 186 184 186 183 177 175 176 176 175 172 170 172 174 178 182 184 182 175 172 177 180 174 172 173 174 175 175 172 171 173 175 177 180 182 182 182 181 180 180 183 185 188 191 193 191 190 189 188 185 184 183 182 183 185 182 182 184 184 183 183 184 185 185 185 184 181 180 181 180 178 177 172 161 148 139 131 119 107 99 88 73 63
192 193 193 190 187 185 180 174 172 172 171 171 172 174 175 177 182 185 184 180 176 175 178 180 178 173 172 175 177 176 173 173 175 177 179 182 182 181 180 180 180 180 183 187 190 192 193 192 190 189 188 186 184 185 185 187 189 187 183 182 182 182 183 184 185 185 185 187 188 189 187 184 183 183 180 171 158 147 137 121 110 103 91 79 65
187 184 182 185 186 183 176 172 173 174 171 171 174 177 179 181 184 184 183 183 183 179 176 179 179 174 173 176 177 176 176 177 177 178 180 181 181 180 180 180 181 182 185 189 192 192 191 192 191 190 190 189 188 187 188 191 193 189 184 182 181 180 183 185 185 186 188 191 192 192 189 188 188 188 186 180 169 159 147 126 113 104 88 79 68
177 174 170 174 178 176 174 175 175 174 174 177 179 178 179 182 185 186 187 188 186 181 178 179 177 172 172 175 176 176 178 176 175 179 184 185 182 181 180 182 184 186 188 190 192 191 189 189 190 190 192 193 192 189 188 191 192 187 183 182 181 180 184 186 186 186 186 188 189 188 188 188 188 189 191 188 180 170 159 138 123 105 87 83 80
165 169 167 168 169 168 173 179 179 177 178 181 183 182 180 185 190 189 187 185 181 178 179 177 174 173 174 175 175 178 178 177 179 185 189 186 183 181 180 181 184 187 189 189 189 189 188 187 189 192 193 196 196 190 185 186 187 184 184 185 182 180 181 182 179 177 177 178 180 181 184 185 184 188 195 193 186 181 172 156 140 112 89 99 104
150 158 160 163 168 173 177 180 181 180 179 181 184 187 187 189 192 190 184 182 179 177 178 177 176 177 177 175 176 178 177 178 185 188 184 180 180 180 180 181 183 184 187 188 188 188 187 187 190 194 195 197 196 187 178 179 183 183 185 187 185 181 179 175 172 172 172 172 174 178 181 181 180 186 195 197 194 191 186 181 175 161 130 134 126
142 151 156 158 165 173 175 174 175 177 180 184 188 193 197 190 180 181 187 185 180 176 175 175 176 176 173 173 176 174 171 177 184 183 177 176 178 181 182 182 182 182 184 187 187 186 187 188 191 194 194 193 190 183 176 177 182 184 187 189 188 186 183 177 172 173 176 174 176 181 184 183 180 183 190 195 197 197 197 199 203 210 218 198 160
139 147 155 155 158 167 167 164 167 171 179 185 187 196 208 194 153 156 174 175 169 169 168 169 171 170 171 176 173 164 168 182 185 180 178 177 178 181 183 182 182 181 182 184 185 185 186 185 185 187 188 186 184 182 179 179 182 185 188 190 192 193 190 183 177 175 177 176 177 181 182 181 182 184 188 191 192 196 202 207 210 217 226 232 231
135 144 155 155 155 162 163 162 166 170 177 181 183 193 205 184 127 142 169 172 170 170 166 165 169 170 174 176 168 163 176 188 184 180 181 179 178 181 181 180 181 181 181 183 184 184 183 182 180 182 184 185 183 183 184 185 185 187 189 191 195 197 194 189 184 179 175 172 172 172 171 170 175 183 190 192 191 196 204 206 206 212 224 236 242
130 139 152 155 153 156 155 149 156 166 170 173 180 188 189 168 149 169 182 176 170 169 165 166 170 173 173 169 165 170 181 183 178 178 179 177 177 178 178 178 181 182 181 182 182 183 184 183 181 181 184 186 186 186 187 188 189 190 191 193 195 197 195 192 188 183 177 173 170 166 162 158 161 172 187 193 196 200 204 205 206 210 220 232 239
126 130 138 142 142 147 144 128 132 155 166 171 181 185 179 169 169 180 185 178 170 166 165 166 169 171 169 166 168 175 179 176 177 180 181 180 180 179 178 178 181 183 184 184 183 184 186 186 185 185 186 188 189 189 190 191 191 192 193 192 193 194 193 192 191 186 180 176 176 173 169 165 161 162 177 189 196 202 206 210 215 217 219 227 238
121 128 134 135 134 141 140 126 129 154 171 178 183 179 171 168 170 175 180 179 172 167 164 164 168 170 169 170 174 176 173 174 178 181 181 182 183 181 180 180 181 183 185 186 186 187 188 189 189 188 189 192 193 193 193 194 193 193 193 191 190 190 189 188 188 187 184 184 185 183 180 177 177 176 178 185 194 198 201 207 214 220 225 233 240
117 130 138 140 142 149 148 138 143 165 178 181 178 170 165 165 166 170 174 173 171 171 168 165 168 170 171 174 178 176 172 173 177 180 182 183 183 184 185 186 189 190 190 189 192 193 195 196 195 192 191 194 197 198 197 196 194 193 193 192 192 192 190 188 188 189 189 191 192 190 188 189 190 191 189 186 189 196 202 210 217 224 234 244 250
117 131 142 148 151 151 145 143 157 173 179 175 167 165 167 166 165 168 170 170 171 172 168 165 168 170 172 176 177 175 173 172 175 181 186 188 189 191 191 193 196 198 198 199 201 202 204 205 203 199 196 195 199 203 202 198 195 194 194 195 196 197 196 195 195 196 197 198 196 192 192 194 195 198 200 197 195 200 208 219 226 232 237 240 244
118 129 139 146 149 146 142 150 165 174 175 171 164 164 169 170 168 168 169 168 167 166 164 166 169 170 173 175 174 172 173 175 178 182 184 186 190 193 195 197 199 201 204 209 211 212 214 212 209 208 206 203 206 209 206 201 197 196 197 200 203 203 202 200 200 200 202 203 200 194 195 199 201 206 211 209 211 215 217 225 232 236 239 239 241
126 132 138 142 147 152 155 161 169 172 173 175 172 167 170 173 172 171 171 169 165 163 164 168 171 172 174 175 173 171 174 178 182 183 181 180 183 190 197 203 204 204 209 214 215 218 222 220 216 215 214 212 214 215 212 207 203 201 200 203 206 208 206 204 204 204 205 207 204 201 203 206 207 213 219 220 223 228 230 236 240 240 242 243 245